| time (UTC) | temp F | wind direction | speed knots | gust knots | rain 1hr in | rain 24hr in | rain mn in | humidity % | barometer mb |
| 20260503211504 | 62 | 284 | 0.9 | 3.5 | 0.00 | 0.00 | 0.00 | 82 | 1018.0 |
| 20260503210005 | 62 | 297 | 0.9 | 4.3 | 0.00 | 0.00 | 0.00 | 83 | 1018.0 |
| 20260503204504 | 62 | 299 | 0.9 | 3.5 | 0.00 | 0.00 | 0.00 | 83 | 1018.1 |
| 20260503203004 | 61 | 260 | 0.0 | 2.6 | 0.00 | 0.00 | 0.00 | 84 | 1017.9 |
| 20260503201511 | 61 | 174 | 0.0 | 0.9 | 0.00 | 0.00 | 0.00 | 83 | 1017.8 |
| 20260503200005 | 62 | 233 | 0.9 | 1.7 | 0.00 | 0.00 | 0.00 | 82 | 1017.9 |
| 20260503194506 | 62 | 281 | 0.9 | 4.3 | 0.00 | 0.00 | 0.00 | 82 | 1017.8 |
| 20260503193004 | 62 | 244 | 1.7 | 5.2 | 0.00 | 0.00 | 0.00 | 81 | 1017.8 |
| 20260503191505 | 62 | 197 | 1.7 | 4.3 | 0.00 | 0.00 | 0.00 | 81 | 1017.8 |
| 20260503190012 | 62 | 186 | 1.7 | 5.2 | 0.00 | 0.00 | 0.00 | 81 | 1017.7 |
| 20260503183004 | 63 | 254 | 3.5 | 7.0 | 0.00 | 0.00 | 0.00 | 79 | 1017.6 |
| 20260503180016 | 64 | 243 | 3.5 | 9.6 | 0.00 | 0.00 | 0.00 | 75 | 1017.3 |
| 20260503174504 | 64 | 251 | 4.3 | 8.7 | 0.00 | 0.00 | 0.00 | 75 | 1017.3 |
| 20260503173004 | 65 | 265 | 4.3 | 9.6 | 0.00 | 0.00 | 0.00 | 75 | 1017.2 |
| 20260503081504 | 64 | 326 | 3.5 | 7.0 | 0.00 | 0.00 | 0.00 | 80 | 1019.5 |
| 20260503080110 | 63 | 324 | 2.6 | 6.1 | 0.00 | 0.00 | 0.00 | 78 | 1019.3 |
| 20260503071504 | 62 | 332 | 1.7 | 5.2 | 0.00 | 0.00 | 0.00 | 79 | 1019.7 |
| 20260503054504 | 59 | 0 | 0.0 | 0.0 | 0.00 | 0.00 | 0.00 | 77 | 1019.8 |
| 20260503053005 | 58 | 0 | 0.0 | 0.0 | 0.00 | 0.00 | 0.00 | 76 | 1019.8 |
| 20260503043006 | 53 | 111 | 0.9 | 1.7 | 0.00 | 0.00 | 0.00 | 82 | 1019.6 |
| 20260503040004 | 53 | 116 | 0.9 | 1.7 | 0.00 | 0.00 | 0.00 | 82 | 1019.5 |
| 20260503034504 | 53 | 106 | 0.9 | 1.7 | 0.00 | 0.00 | 0.00 | 81 | 1019.4 |
| 20260503031504 | 53 | 134 | 1.7 | 1.7 | 0.00 | 0.00 | 0.00 | 79 | 1019.3 |
| 20260503030005 | 53 | 131 | 1.7 | 5.2 | 0.00 | 0.00 | 0.00 | 79 | 1019.3 |
| 20260503024507 | 53 | 133 | 1.7 | 3.5 | 0.00 | 0.00 | 0.00 | 79 | 1019.4 |
| 20260503021504 | 54 | 90 | 1.7 | 3.5 | 0.00 | 0.00 | 0.00 | 79 | 1019.4 |
| 20260503014504 | 53 | 123 | 0.9 | 4.3 | 0.00 | 0.00 | 0.00 | 81 | 1019.5 |
| 20260503013004 | 53 | 101 | 0.0 | 0.9 | 0.00 | 0.00 | 0.00 | 82 | 1019.7 |
| 20260503011506 | 53 | 130 | 0.9 | 2.6 | 0.00 | 0.00 | 0.00 | 83 | 1019.9 |
| 20260503010006 | 53 | 121 | 0.0 | 1.7 | 0.00 | 0.00 | 0.00 | 83 | 1019.9 |
| 20260503004505 | 53 | 0 | 0.0 | 0.0 | 0.00 | 0.00 | 0.00 | 81 | 1020.0 |
| 20260503003005 | 53 | 0 | 0.0 | 0.0 | 0.00 | 0.00 | 0.00 | 81 | 1020.1 |
| 20260503001505 | 54 | 14 | 0.0 | 0.9 | 0.00 | 0.00 | 0.00 | 82 | 1020.2 |
| 20260503000004 | 55 | 15 | 0.0 | 0.9 | 0.00 | 0.00 | 0.00 | 81 | 1020.1 |
| 20260502234504 | 55 | 352 | 0.0 | 0.9 | 0.00 | 0.00 | 0.00 | 82 | 1020.2 |
| 20260502233004 | 56 | 99 | 0.0 | 0.9 | 0.00 | 0.00 | 0.00 | 82 | 1020.3 |
| 20260502231504 | 57 | 105 | 0.0 | 0.9 | 0.00 | 0.00 | 0.00 | 82 | 1020.4 |
| 20260502224504 | 59 | 155 | 0.0 | 1.7 | 0.00 | 0.00 | 0.00 | 81 | 1020.6 |
| 20260502223004 | 59 | 155 | 0.0 | 1.7 | 0.00 | 0.00 | 0.00 | 80 | 1020.7 |
| 20260502221505 | 59 | 155 | 0.9 | 2.6 | 0.00 | 0.00 | 0.00 | 80 | 1020.8 |
| 20260502220008 | 58 | 155 | 0.0 | 0.9 | 0.00 | 0.00 | 0.00 | 82 | 1020.7 |
| 20260502214504 | 58 | 149 | 0.0 | 0.9 | 0.00 | 0.00 | 0.00 | 79 | 1020.6 |
| 20260502213004 | 60 | 153 | 0.0 | 2.6 | 0.00 | 0.00 | 0.00 | 78 | 1020.6 |